| time (UTC) | temp F | wind direction | speed MPH | gust MPH | rain 1hr in | rain 24hr in | rain mn in | humidity % | barometer mb |
| 20260508164011 | 66 | 352 | 8.0 | 16.0 | 0.00 | 0.02 | 0.02 | 86 | 1016.5 |
| 20260508163510 | 66 | 9 | 8.0 | 11.0 | 0.00 | 0.02 | 0.02 | 86 | 1016.7 |
| 20260508163030 | 66 | 360 | 5.0 | 8.0 | 0.00 | 0.02 | 0.02 | 86 | 1016.5 |
| 20260508162514 | 66 | 22 | 3.0 | 6.0 | 0.00 | 0.02 | 0.02 | 86 | 1016.4 |
| 20260508162007 | 66 | 54 | 3.0 | 5.0 | 0.00 | 0.02 | 0.02 | 86 | 1016.3 |
| 20260508161510 | 66 | 43 | 3.0 | 5.0 | 0.00 | 0.02 | 0.02 | 87 | 1016.3 |
| 20260508161005 | 65 | 39 | 2.0 | 6.0 | 0.00 | 0.02 | 0.02 | 86 | 1016.4 |
| 20260508160506 | 65 | 32 | 2.0 | 9.0 | 0.00 | 0.02 | 0.02 | 87 | 1016.5 |
| 20260508160021 | 65 | 42 | 5.0 | 9.0 | 0.00 | 0.02 | 0.02 | 87 | 1016.5 |
| 20260508155511 | 65 | 59 | 4.0 | 8.0 | 0.00 | 0.02 | 0.02 | 87 | 1016.4 |
| 20260508155008 | 65 | 53 | 2.0 | 6.0 | 0.00 | 0.02 | 0.02 | 87 | 1016.3 |
| 20260508154520 | 64 | 109 | 3.0 | 6.0 | 0.00 | 0.02 | 0.02 | 87 | 1016.2 |
| 20260508154013 | 64 | 40 | 1.0 | 6.0 | 0.00 | 0.02 | 0.02 | 87 | 1016.3 |
| 20260508153508 | 64 | 111 | 2.0 | 6.0 | 0.01 | 0.02 | 0.02 | 87 | 1016.3 |
| 20260508153022 | 64 | 98 | 3.0 | 9.0 | 0.01 | 0.02 | 0.02 | 87 | 1016.1 |
| 20260508152513 | 64 | 76 | 2.0 | 9.0 | 0.01 | 0.02 | 0.02 | 87 | 1016.0 |
| 20260508152014 | 64 | 86 | 4.0 | 8.0 | 0.01 | 0.02 | 0.02 | 87 | 1015.9 |
| 20260508151526 | 64 | 110 | 3.0 | 10.0 | 0.01 | 0.02 | 0.02 | 87 | 1015.9 |
| 20260508151015 | 64 | 91 | 4.0 | 10.0 | 0.01 | 0.02 | 0.02 | 87 | 1016.0 |
| 20260508150504 | 64 | 103 | 4.0 | 9.0 | 0.01 | 0.02 | 0.02 | 87 | 1016.0 |
| 20260508150034 | 64 | 60 | 2.0 | 9.0 | 0.01 | 0.02 | 0.02 | 86 | 1016.0 |
| 20260508145506 | 64 | 90 | 4.0 | 9.0 | 0.01 | 0.02 | 0.02 | 86 | 1016.2 |
| 20260508145004 | 64 | 54 | 2.0 | 9.0 | 0.01 | 0.02 | 0.02 | 86 | 1016.1 |
| 20260508144502 | 64 | 34 | 5.0 | 9.0 | 0.01 | 0.02 | 0.02 | 86 | 1015.9 |
| 20260508144001 | 65 | 100 | 3.0 | 10.0 | 0.01 | 0.02 | 0.02 | 86 | 1015.8 |
| 20260508143502 | 65 | 88 | 7.0 | 11.0 | 0.00 | 0.01 | 0.01 | 86 | 1015.7 |
| 20260508143005 | 65 | 86 | 6.0 | 11.0 | 0.00 | 0.01 | 0.01 | 86 | 1016.1 |
| 20260508142502 | 65 | 66 | 5.0 | 12.0 | 0.00 | 0.01 | 0.01 | 86 | 1016.1 |
| 20260508142004 | 65 | 113 | 5.0 | 12.0 | 0.00 | 0.01 | 0.01 | 86 | 1016.0 |
| 20260508141507 | 65 | 70 | 4.0 | 9.0 | 0.00 | 0.01 | 0.01 | 86 | 1016.0 |
| 20260508141005 | 65 | 103 | 5.0 | 10.0 | 0.00 | 0.01 | 0.01 | 86 | 1016.1 |
| 20260508140506 | 64 | 84 | 7.0 | 10.0 | 0.00 | 0.01 | 0.01 | 86 | 1016.1 |
| 20260508140015 | 64 | 99 | 4.0 | 10.0 | 0.00 | 0.01 | 0.01 | 86 | 1016.3 |
| 20260508135505 | 64 | 100 | 5.0 | 10.0 | 0.00 | 0.01 | 0.01 | 86 | 1016.3 |
| 20260508135005 | 64 | 130 | 3.0 | 8.0 | 0.00 | 0.01 | 0.01 | 86 | 1016.3 |
| 20260508134513 | 64 | 88 | 3.0 | 8.0 | 0.00 | 0.01 | 0.01 | 86 | 1016.3 |
| 20260508134009 | 64 | 80 | 4.0 | 9.0 | 0.00 | 0.01 | 0.01 | 86 | 1016.3 |
| 20260508133512 | 64 | 94 | 4.0 | 9.0 | 0.00 | 0.01 | 0.01 | 87 | 1016.2 |
| 20260508133002 | 64 | 59 | 2.0 | 6.0 | 0.00 | 0.01 | 0.01 | 87 | 1016.3 |
| 20260508132501 | 64 | 73 | 2.0 | 8.0 | 0.00 | 0.01 | 0.01 | 86 | 1016.4 |
| 20260508132001 | 64 | 59 | 3.0 | 8.0 | 0.00 | 0.01 | 0.01 | 86 | 1016.2 |
| 20260508131506 | 63 | 69 | 3.0 | 8.0 | 0.00 | 0.01 | 0.01 | 87 | 1016.5 |
| 20260508131010 | 63 | 73 | 3.0 | 6.0 | 0.00 | 0.01 | 0.01 | 87 | 1016.5 |
| 20260508130504 | 63 | 61 | 2.0 | 6.0 | 0.00 | 0.01 | 0.01 | 87 | 1016.3 |
| 20260508130006 | 63 | 76 | 1.0 | 5.0 | 0.00 | 0.01 | 0.01 | 87 | 1016.5 |
| 20260508125505 | 63 | 59 | 2.0 | 6.0 | 0.00 | 0.01 | 0.01 | 87 | 1016.4 |
| 20260508125005 | 63 | 38 | 3.0 | 6.0 | 0.00 | 0.01 | 0.01 | 87 | 1016.3 |
| 20260508124514 | 63 | 64 | 2.0 | 5.0 | 0.00 | 0.01 | 0.01 | 87 | 1016.2 |
| 20260508124006 | 63 | 33 | 3.0 | 5.0 | 0.00 | 0.02 | 0.01 | 87 | 1016.4 |
| 20260508123505 | 63 | 72 | 1.0 | 4.0 | 0.00 | 0.02 | 0.01 | 87 | 1016.5 |
| 20260508123018 | 63 | 22 | 1.0 | 4.0 | 0.00 | 0.03 | 0.01 | 87 | 1016.6 |
| 20260508122505 | 63 | 47 | 2.0 | 6.0 | 0.00 | 0.03 | 0.01 | 87 | 1016.5 |
| 20260508122007 | 63 | 50 | 2.0 | 7.0 | 0.00 | 0.03 | 0.01 | 87 | 1016.3 |
| 20260508121501 | 63 | 109 | 3.0 | 7.0 | 0.00 | 0.03 | 0.01 | 87 | 1016.0 |
| 20260508121002 | 63 | 61 | 2.0 | 5.0 | 0.00 | 0.03 | 0.01 | 87 | 1016.2 |
| 20260508120502 | 63 | 66 | 2.0 | 4.0 | 0.00 | 0.03 | 0.01 | 87 | 1016.2 |
| 20260508120010 | 63 | 43 | 2.0 | 5.0 | 0.01 | 0.03 | 0.01 | 87 | 1016.4 |
| 20260508115505 | 63 | 36 | 3.0 | 5.0 | 0.01 | 0.03 | 0.01 | 87 | 1016.6 |
| 20260508115004 | 63 | 99 | 2.0 | 4.0 | 0.01 | 0.03 | 0.01 | 86 | 1016.6 |
| 20260508114508 | 63 | 59 | 1.0 | 4.0 | 0.01 | 0.03 | 0.01 | 86 | 1016.5 |
| 20260508114005 | 63 | 90 | 0.0 | 4.0 | 0.01 | 0.03 | 0.01 | 87 | 1016.5 |
| 20260508113505 | 63 | 93 | 2.0 | 6.0 | 0.01 | 0.03 | 0.01 | 86 | 1016.4 |
| 20260508113018 | 63 | 46 | 2.0 | 6.0 | 0.01 | 0.03 | 0.01 | 86 | 1016.3 |
| 20260508112505 | 63 | 92 | 2.0 | 5.0 | 0.01 | 0.03 | 0.01 | 86 | 1016.2 |
| 20260508112008 | 63 | 55 | 3.0 | 7.0 | 0.01 | 0.04 | 0.01 | 86 | 1016.1 |
| 20260508111522 | 63 | 73 | 4.0 | 7.0 | 0.01 | 0.04 | 0.01 | 86 | 1016.1 |
| 20260508111010 | 63 | 74 | 3.0 | 6.0 | 0.01 | 0.04 | 0.01 | 86 | 1016.2 |
| 20260508110507 | 63 | 76 | 3.0 | 6.0 | 0.01 | 0.04 | 0.01 | 86 | 1016.2 |
| 20260508110005 | 64 | 345 | 3.0 | 9.0 | 0.00 | 0.03 | 0.00 | 86 | 1016.2 |
| 20260508105504 | 64 | 360 | 4.0 | 9.0 | 0.00 | 0.03 | 0.00 | 86 | 1016.1 |
| 20260508105006 | 64 | 352 | 4.0 | 9.0 | 0.00 | 0.04 | 0.00 | 86 | 1016.1 |
| 20260508104508 | 64 | 352 | 4.0 | 7.0 | 0.00 | 0.04 | 0.00 | 86 | 1016.0 |
| 20260508104006 | 64 | 360 | 2.0 | 7.0 | 0.00 | 0.04 | 0.00 | 86 | 1016.0 |
| 20260508103505 | 64 | 15 | 3.0 | 5.0 | 0.00 | 0.04 | 0.00 | 86 | 1015.8 |
| 20260508103014 | 64 | 21 | 3.0 | 5.0 | 0.00 | 0.04 | 0.00 | 86 | 1015.5 |
| 20260508102505 | 64 | 360 | 2.0 | 5.0 | 0.00 | 0.04 | 0.00 | 86 | 1015.5 |
| 20260508102009 | 64 | 15 | 2.0 | 5.0 | 0.00 | 0.04 | 0.00 | 86 | 1015.3 |
| 20260508101518 | 64 | 32 | 2.0 | 4.0 | 0.00 | 0.04 | 0.00 | 86 | 1015.1 |
| 20260508101009 | 64 | 65 | 2.0 | 3.0 | 0.00 | 0.04 | 0.00 | 86 | 1014.9 |
| 20260508100507 | 64 | 76 | 1.0 | 3.0 | 0.00 | 0.04 | 0.00 | 86 | 1014.7 |
| 20260508100027 | 64 | 78 | 2.0 | 5.0 | 0.00 | 0.04 | 0.00 | 86 | 1014.8 |
| 20260508095510 | 64 | 79 | 2.0 | 7.0 | 0.00 | 0.04 | 0.00 | 86 | 1014.8 |
| 20260508095013 | 64 | 43 | 4.0 | 7.0 | 0.00 | 0.04 | 0.00 | 86 | 1014.8 |
| 20260508094508 | 64 | 16 | 3.0 | 6.0 | 0.00 | 0.04 | 0.00 | 86 | 1014.8 |
| 20260508094009 | 64 | 41 | 3.0 | 5.0 | 0.00 | 0.04 | 0.00 | 86 | 1014.8 |
| 20260508093506 | 64 | 22 | 3.0 | 5.0 | 0.00 | 0.04 | 0.00 | 86 | 1014.8 |
| 20260508093013 | 64 | 23 | 3.0 | 4.0 | 0.00 | 0.04 | 0.00 | 86 | 1014.9 |
| 20260508092504 | 64 | 67 | 2.0 | 6.0 | 0.00 | 0.04 | 0.00 | 86 | 1014.8 |
| 20260508092007 | 64 | 83 | 2.0 | 6.0 | 0.00 | 0.04 | 0.00 | 86 | 1014.7 |
| 20260508091518 | 64 | 73 | 2.0 | 6.0 | 0.00 | 0.04 | 0.00 | 86 | 1014.7 |
| 20260508091007 | 64 | 77 | 2.0 | 6.0 | 0.00 | 0.04 | 0.00 | 86 | 1014.6 |
| 20260508090508 | 64 | 74 | 3.0 | 6.0 | 0.00 | 0.04 | 0.00 | 86 | 1014.9 |
| 20260508090018 | 64 | 46 | 3.0 | 6.0 | 0.00 | 0.04 | 0.00 | 86 | 1014.9 |
| 20260508085508 | 64 | 40 | 2.0 | 4.0 | 0.00 | 0.04 | 0.00 | 86 | 1015.0 |
| 20260508085010 | 64 | 45 | 2.0 | 4.0 | 0.00 | 0.04 | 0.00 | 86 | 1015.0 |
| 20260508084524 | 64 | 44 | 1.0 | 4.0 | 0.00 | 0.04 | 0.00 | 86 | 1014.9 |
| 20260508084010 | 64 | 38 | 2.0 | 5.0 | 0.00 | 0.04 | 0.00 | 86 | 1014.9 |
| 20260508083512 | 64 | 48 | 2.0 | 6.0 | 0.00 | 0.04 | 0.00 | 86 | 1014.9 |
| 20260508083009 | 64 | 52 | 2.0 | 6.0 | 0.00 | 0.04 | 0.00 | 86 | 1015.0 |
| 20260508082505 | 64 | 53 | 2.0 | 6.0 | 0.00 | 0.04 | 0.00 | 86 | 1015.0 |
| 20260508082005 | 64 | 42 | 4.0 | 6.0 | 0.00 | 0.04 | 0.00 | 86 | 1015.1 |
| 20260508081516 | 64 | 21 | 3.0 | 7.0 | 0.00 | 0.04 | 0.00 | 86 | 1015.3 |
| 20260508081006 | 64 | 9 | 3.0 | 7.0 | 0.00 | 0.04 | 0.00 | 86 | 1015.3 |
| 20260508080507 | 64 | 10 | 4.0 | 7.0 | 0.00 | 0.04 | 0.00 | 86 | 1015.2 |
| 20260508080030 | 64 | 12 | 2.0 | 5.0 | 0.00 | 0.04 | 0.00 | 86 | 1015.1 |
| 20260508075508 | 64 | 352 | 2.0 | 5.0 | 0.00 | 0.04 | 0.00 | 86 | 1015.1 |
| 20260508075010 | 64 | 5 | 2.0 | 6.0 | 0.00 | 0.04 | 0.00 | 86 | 1015.1 |
| 20260508074522 | 64 | 53 | 2.0 | 6.0 | 0.00 | 0.04 | 0.00 | 86 | 1014.9 |
| 20260508074008 | 64 | 58 | 2.0 | 4.0 | 0.00 | 0.04 | 0.00 | 86 | 1014.8 |
| 20260508073507 | 64 | 107 | 1.0 | 5.0 | 0.00 | 0.04 | 0.00 | 86 | 1014.7 |
| 20260508073026 | 64 | 40 | 1.0 | 5.0 | 0.00 | 0.04 | 0.00 | 87 | 1014.7 |
| 20260508072512 | 64 | 25 | 3.0 | 5.0 | 0.00 | 0.04 | 0.00 | 87 | 1014.9 |
| 20260508072008 | 64 | 35 | 3.0 | 5.0 | 0.00 | 0.04 | 0.00 | 87 | 1015.1 |
| 20260508071513 | 64 | 35 | 3.0 | 6.0 | 0.00 | 0.04 | 0.00 | 87 | 1015.0 |
| 20260508071008 | 64 | 78 | 3.0 | 6.0 | 0.00 | 0.04 | 0.00 | 87 | 1015.1 |
| 20260508070508 | 64 | 59 | 2.0 | 6.0 | 0.00 | 0.04 | 0.00 | 87 | 1015.2 |
| 20260508070022 | 64 | 37 | 4.0 | 7.0 | 0.00 | 0.04 | 0.00 | 87 | 1015.1 |
| 20260508065507 | 64 | 49 | 4.0 | 9.0 | 0.00 | 0.04 | 0.00 | 87 | 1015.2 |
| 20260508065007 | 64 | 40 | 3.0 | 9.0 | 0.00 | 0.04 | 0.00 | 87 | 1015.2 |
| 20260508064535 | 64 | 65 | 4.0 | 9.0 | 0.00 | 0.04 | 0.00 | 87 | 1015.3 |
| 20260508064008 | 64 | 49 | 3.0 | 11.0 | 0.00 | 0.04 | 0.00 | 87 | 1015.4 |
| 20260508063508 | 64 | 35 | 4.0 | 11.0 | 0.00 | 0.04 | 0.00 | 87 | 1015.3 |
| 20260508063027 | 64 | 38 | 4.0 | 9.0 | 0.00 | 0.04 | 0.00 | 87 | 1015.4 |
| 20260508062508 | 64 | 51 | 3.0 | 9.0 | 0.00 | 0.04 | 0.00 | 87 | 1015.4 |
| 20260508062010 | 64 | 47 | 6.0 | 9.0 | 0.00 | 0.04 | 0.00 | 87 | 1015.5 |
| 20260508061532 | 64 | 29 | 4.0 | 7.0 | 0.00 | 0.04 | 0.00 | 87 | 1015.6 |
| 20260508061010 | 64 | 17 | 3.0 | 5.0 | 0.00 | 0.04 | 0.00 | 87 | 1015.7 |
| 20260508060517 | 64 | 13 | 2.0 | 6.0 | 0.00 | 0.04 | 0.00 | 87 | 1015.5 |
| 20260508060028 | 64 | 28 | 3.0 | 8.0 | 0.00 | 0.04 | 0.00 | 87 | 1015.5 |
| 20260508055507 | 64 | 345 | 4.0 | 8.0 | 0.00 | 0.04 | 0.00 | 87 | 1015.6 |
| 20260508055007 | 64 | 31 | 3.0 | 6.0 | 0.00 | 0.04 | 0.00 | 87 | 1015.2 |
| 20260508054532 | 64 | 94 | 3.0 | 5.0 | 0.00 | 0.04 | 0.00 | 87 | 1015.3 |
| 20260508054007 | 64 | 84 | 2.0 | 5.0 | 0.00 | 0.04 | 0.00 | 87 | 1015.4 |
| 20260508053507 | 64 | 30 | 3.0 | 5.0 | 0.00 | 0.04 | 0.00 | 87 | 1015.6 |
| 20260508053020 | 64 | 58 | 2.0 | 4.0 | 0.00 | 0.04 | 0.00 | 87 | 1015.4 |
| 20260508052515 | 64 | 47 | 2.0 | 4.0 | 0.00 | 0.04 | 0.00 | 87 | 1015.6 |
| 20260508052011 | 64 | 41 | 2.0 | 4.0 | 0.00 | 0.04 | 0.00 | 86 | 1015.7 |
| 20260508051525 | 64 | 5 | 1.0 | 4.0 | 0.00 | 0.04 | 0.00 | 86 | 1015.7 |
| 20260508051006 | 64 | 348 | 2.0 | 4.0 | 0.00 | 0.04 | 0.00 | 87 | 1015.8 |
| 20260508050505 | 64 | 40 | 1.0 | 3.0 | 0.00 | 0.04 | 0.00 | 87 | 1015.7 |
| 20260508050010 | 64 | 44 | 0.0 | 4.0 | 0.00 | 0.04 | 0.00 | 87 | 1015.6 |
| 20260508045509 | 64 | 61 | 1.0 | 4.0 | 0.00 | 0.04 | 0.04 | 87 | 1015.7 |
| 20260508045005 | 64 | 350 | 1.0 | 4.0 | 0.00 | 0.04 | 0.04 | 87 | 1015.9 |
| 20260508044516 | 64 | 351 | 2.0 | 3.0 | 0.00 | 0.04 | 0.04 | 87 | 1016.0 |
| 20260508044004 | 64 | 49 | 1.0 | 3.0 | 0.00 | 0.04 | 0.04 | 87 | 1015.7 |
| 20260508043507 | 64 | 49 | 1.0 | 4.0 | 0.00 | 0.04 | 0.04 | 87 | 1015.7 |
| 20260508043020 | 64 | 49 | 2.0 | 4.0 | 0.00 | 0.04 | 0.04 | 87 | 1015.8 |
| 20260508042509 | 64 | 19 | 1.0 | 4.0 | 0.00 | 0.04 | 0.04 | 87 | 1016.0 |
| 20260508042008 | 64 | 352 | 2.0 | 5.0 | 0.00 | 0.04 | 0.04 | 86 | 1016.4 |
| 20260508041523 | 64 | 37 | 2.0 | 6.0 | 0.00 | 0.04 | 0.04 | 86 | 1016.0 |
| 20260508041009 | 64 | 22 | 3.0 | 6.0 | 0.00 | 0.04 | 0.04 | 86 | 1015.9 |
| 20260508040509 | 65 | 15 | 2.0 | 4.0 | 0.00 | 0.04 | 0.04 | 86 | 1016.0 |
| 20260508040040 | 65 | 51 | 1.0 | 5.0 | 0.00 | 0.04 | 0.04 | 86 | 1016.0 |
| 20260508035505 | 65 | 14 | 3.0 | 6.0 | 0.00 | 0.04 | 0.04 | 86 | 1016.2 |
| 20260508035006 | 65 | 18 | 3.0 | 6.0 | 0.00 | 0.04 | 0.04 | 86 | 1016.4 |
| 20260508034513 | 65 | 329 | 3.0 | 5.0 | 0.00 | 0.04 | 0.04 | 86 | 1016.5 |
| 20260508034009 | 65 | 352 | 1.0 | 5.0 | 0.00 | 0.04 | 0.04 | 86 | 1016.3 |
| 20260508033507 | 65 | 352 | 3.0 | 5.0 | 0.00 | 0.04 | 0.04 | 86 | 1016.4 |
| 20260508033018 | 65 | 360 | 2.0 | 4.0 | 0.00 | 0.04 | 0.04 | 86 | 1016.4 |
| 20260508032508 | 66 | 5 | 2.0 | 7.0 | 0.00 | 0.04 | 0.04 | 86 | 1016.4 |
| 20260508032007 | 66 | 13 | 2.0 | 7.0 | 0.00 | 0.04 | 0.04 | 86 | 1016.3 |
| 20260508031523 | 66 | 9 | 3.0 | 5.0 | 0.00 | 0.04 | 0.04 | 86 | 1016.3 |
| 20260508031012 | 66 | 352 | 3.0 | 7.0 | 0.00 | 0.04 | 0.04 | 86 | 1016.3 |
| 20260508030510 | 66 | 9 | 3.0 | 7.0 | 0.00 | 0.04 | 0.04 | 86 | 1016.5 |
| 20260508030026 | 66 | 5 | 2.0 | 6.0 | 0.00 | 0.04 | 0.04 | 86 | 1016.5 |
| 20260508025509 | 66 | 13 | 3.0 | 6.0 | 0.00 | 0.04 | 0.04 | 86 | 1016.5 |
| 20260508025012 | 66 | 360 | 4.0 | 7.0 | 0.00 | 0.04 | 0.04 | 86 | 1016.6 |
| 20260508024528 | 67 | 360 | 4.0 | 7.0 | 0.00 | 0.04 | 0.04 | 86 | 1016.4 |
| 20260508024005 | 67 | 17 | 3.0 | 8.0 | 0.00 | 0.04 | 0.04 | 86 | 1016.2 |
| 20260508023505 | 67 | 24 | 4.0 | 8.0 | 0.00 | 0.04 | 0.04 | 86 | 1016.1 |
| 20260508023013 | 67 | 20 | 5.0 | 7.0 | 0.00 | 0.04 | 0.04 | 86 | 1016.1 |
| 20260508022507 | 67 | 23 | 2.0 | 4.0 | 0.00 | 0.04 | 0.04 | 86 | 1016.2 |
| 20260508022011 | 67 | 31 | 1.0 | 3.0 | 0.00 | 0.04 | 0.04 | 86 | 1016.1 |
| 20260508021520 | 67 | 352 | 0.0 | 3.0 | 0.00 | 0.04 | 0.04 | 86 | 1016.2 |
| 20260508021011 | 68 | 352 | 1.0 | 6.0 | 0.00 | 0.04 | 0.04 | 85 | 1016.3 |
| 20260508020507 | 68 | 14 | 3.0 | 9.0 | 0.00 | 0.04 | 0.04 | 85 | 1016.3 |
| 20260508020023 | 68 | 360 | 5.0 | 9.0 | 0.00 | 0.04 | 0.04 | 85 | 1016.1 |
| 20260508015507 | 68 | 347 | 3.0 | 5.0 | 0.00 | 0.04 | 0.04 | 85 | 1016.1 |
| 20260508015010 | 69 | 17 | 3.0 | 5.0 | 0.00 | 0.04 | 0.04 | 85 | 1016.1 |
| 20260508014524 | 69 | 345 | 3.0 | 5.0 | 0.00 | 0.04 | 0.04 | 85 | 1016.0 |
| 20260508014010 | 69 | 360 | 3.0 | 6.0 | 0.00 | 0.04 | 0.04 | 85 | 1015.9 |
| 20260508013508 | 69 | 360 | 3.0 | 8.0 | 0.00 | 0.04 | 0.04 | 85 | 1016.0 |
| 20260508013027 | 69 | 360 | 4.0 | 10.0 | 0.00 | 0.04 | 0.04 | 85 | 1015.8 |
| 20260508012511 | 69 | 9 | 5.0 | 10.0 | 0.00 | 0.04 | 0.04 | 85 | 1015.7 |
| 20260508012008 | 70 | 352 | 5.0 | 9.0 | 0.00 | 0.04 | 0.04 | 85 | 1015.5 |
| 20260508011519 | 70 | 344 | 5.0 | 9.0 | 0.00 | 0.04 | 0.04 | 85 | 1015.4 |
| 20260508011011 | 70 | 346 | 4.0 | 10.0 | 0.00 | 0.04 | 0.04 | 85 | 1015.3 |
| 20260508010507 | 70 | 348 | 4.0 | 10.0 | 0.00 | 0.04 | 0.04 | 85 | 1015.3 |
| 20260508010021 | 70 | 346 | 4.0 | 9.0 | 0.00 | 0.04 | 0.04 | 85 | 1015.1 |
| 20260508005507 | 70 | 321 | 4.0 | 8.0 | 0.00 | 0.04 | 0.04 | 85 | 1015.1 |
| 20260508005009 | 70 | 360 | 4.0 | 8.0 | 0.00 | 0.04 | 0.04 | 85 | 1015.0 |
| 20260508004530 | 71 | 331 | 3.0 | 6.0 | 0.00 | 0.04 | 0.04 | 85 | 1014.9 |
| 20260508004013 | 71 | 331 | 2.0 | 9.0 | 0.00 | 0.04 | 0.04 | 85 | 1014.9 |
| 20260508003516 | 71 | 311 | 4.0 | 9.0 | 0.00 | 0.04 | 0.04 | 85 | 1015.0 |
| 20260508003027 | 71 | 323 | 4.0 | 8.0 | 0.00 | 0.04 | 0.04 | 85 | 1015.1 |
| 20260508002507 | 72 | 340 | 4.0 | 8.0 | 0.00 | 0.04 | 0.04 | 84 | 1015.0 |
| 20260508002013 | 72 | 343 | 3.0 | 8.0 | 0.00 | 0.04 | 0.04 | 84 | 1015.0 |
| 20260508001530 | 72 | 336 | 3.0 | 5.0 | 0.00 | 0.04 | 0.04 | 84 | 1015.0 |
| 20260508001009 | 72 | 342 | 2.0 | 8.0 | 0.00 | 0.04 | 0.04 | 84 | 1015.0 |
| 20260508000512 | 72 | 15 | 3.0 | 9.0 | 0.00 | 0.04 | 0.04 | 83 | 1014.9 |
| 20260508000017 | 73 | 352 | 4.0 | 9.0 | 0.00 | 0.04 | 0.04 | 83 | 1014.9 |
| 20260507235507 | 73 | 350 | 3.0 | 10.0 | 0.00 | 0.04 | 0.04 | 83 | 1014.9 |
| 20260507235008 | 73 | 5 | 6.0 | 10.0 | 0.00 | 0.04 | 0.04 | 82 | 1015.0 |
| 20260507234537 | 73 | 360 | 4.0 | 9.0 | 0.00 | 0.04 | 0.04 | 82 | 1014.8 |
| 20260507234008 | 73 | 345 | 3.0 | 9.0 | 0.00 | 0.04 | 0.04 | 82 | 1014.8 |
| 20260507233508 | 73 | 338 | 4.0 | 8.0 | 0.00 | 0.04 | 0.04 | 82 | 1014.9 |
| 20260507233027 | 74 | 352 | 3.0 | 7.0 | 0.00 | 0.04 | 0.04 | 82 | 1014.9 |
| 20260507232511 | 74 | 360 | 3.0 | 5.0 | 0.00 | 0.04 | 0.04 | 83 | 1014.9 |
| 20260507232005 | 74 | 342 | 3.0 | 5.0 | 0.00 | 0.04 | 0.04 | 83 | 1014.7 |
| 20260507231511 | 74 | 5 | 3.0 | 7.0 | 0.00 | 0.04 | 0.04 | 83 | 1014.9 |
| 20260507231008 | 74 | 5 | 3.0 | 8.0 | 0.00 | 0.04 | 0.04 | 82 | 1015.0 |
| 20260507230504 | 74 | 24 | 4.0 | 9.0 | 0.00 | 0.04 | 0.04 | 82 | 1015.0 |
| 20260507230017 | 74 | 5 | 7.0 | 9.0 | 0.00 | 0.04 | 0.04 | 81 | 1015.0 |
| 20260507225507 | 74 | 5 | 5.0 | 9.0 | 0.00 | 0.04 | 0.04 | 81 | 1014.9 |
| 20260507225008 | 74 | 352 | 5.0 | 9.0 | 0.00 | 0.04 | 0.04 | 81 | 1014.9 |
| 20260507224518 | 74 | 360 | 4.0 | 9.0 | 0.00 | 0.04 | 0.04 | 80 | 1014.8 |
| 20260507224008 | 75 | 332 | 5.0 | 10.0 | 0.00 | 0.04 | 0.04 | 80 | 1014.7 |
| 20260507223514 | 75 | 333 | 5.0 | 11.0 | 0.00 | 0.04 | 0.04 | 80 | 1014.8 |
| 20260507223024 | 75 | 338 | 4.0 | 12.0 | 0.00 | 0.04 | 0.04 | 81 | 1014.8 |
| 20260507222508 | 75 | 350 | 8.0 | 12.0 | 0.00 | 0.04 | 0.04 | 80 | 1014.9 |
| 20260507222011 | 75 | 30 | 4.0 | 10.0 | 0.00 | 0.04 | 0.04 | 80 | 1014.8 |
| 20260507221532 | 75 | 351 | 5.0 | 10.0 | 0.00 | 0.04 | 0.04 | 80 | 1014.8 |
| 20260507221011 | 75 | 23 | 6.0 | 9.0 | 0.00 | 0.04 | 0.04 | 80 | 1014.8 |
| 20260507220508 | 75 | 11 | 5.0 | 9.0 | 0.00 | 0.04 | 0.04 | 81 | 1014.7 |
| 20260507220016 | 75 | 337 | 4.0 | 11.0 | 0.00 | 0.04 | 0.04 | 81 | 1014.7 |
| 20260507215508 | 75 | 14 | 7.0 | 11.0 | 0.00 | 0.04 | 0.04 | 81 | 1014.6 |
| 20260507215012 | 75 | 309 | 4.0 | 8.0 | 0.00 | 0.04 | 0.04 | 81 | 1014.6 |
| 20260507214519 | 75 | 25 | 4.0 | 9.0 | 0.00 | 0.04 | 0.04 | 82 | 1014.5 |
| 20260507214010 | 75 | 336 | 4.0 | 9.0 | 0.00 | 0.04 | 0.04 | 83 | 1014.5 |
| 20260507213511 | 75 | 320 | 5.0 | 8.0 | 0.00 | 0.04 | 0.04 | 82 | 1014.4 |
| 20260507213027 | 75 | 340 | 3.0 | 10.0 | 0.00 | 0.04 | 0.04 | 82 | 1014.5 |
| 20260507212511 | 74 | 11 | 7.0 | 10.0 | 0.00 | 0.04 | 0.04 | 82 | 1014.5 |
| 20260507212011 | 74 | 335 | 4.0 | 10.0 | 0.00 | 0.04 | 0.04 | 83 | 1014.4 |
| 20260507211528 | 74 | 336 | 6.0 | 11.0 | 0.00 | 0.04 | 0.04 | 82 | 1014.4 |
| 20260507211014 | 75 | 335 | 7.0 | 11.0 | 0.00 | 0.04 | 0.04 | 82 | 1014.4 |
| 20260507210511 | 75 | 352 | 6.0 | 10.0 | 0.00 | 0.04 | 0.04 | 82 | 1014.4 |
| 20260507210030 | 75 | 338 | 5.0 | 11.0 | 0.00 | 0.04 | 0.04 | 82 | 1014.4 |
| 20260507205508 | 75 | 352 | 6.0 | 12.0 | 0.00 | 0.04 | 0.04 | 81 | 1014.4 |
| 20260507205008 | 76 | 5 | 6.0 | 12.0 | 0.00 | 0.04 | 0.04 | 81 | 1014.4 |
| 20260507204516 | 76 | 352 | 9.0 | 12.0 | 0.00 | 0.04 | 0.04 | 81 | 1014.5 |
| 20260507204003 | 76 | 352 | 4.0 | 10.0 | 0.00 | 0.04 | 0.04 | 81 | 1014.4 |
| 20260507203504 | 76 | 338 | 6.0 | 10.0 | 0.00 | 0.04 | 0.04 | 80 | 1014.6 |
| 20260507203004 | 76 | 348 | 5.0 | 9.0 | 0.00 | 0.04 | 0.04 | 80 | 1014.6 |
| 20260507202503 | 76 | 17 | 4.0 | 8.0 | 0.00 | 0.04 | 0.04 | 80 | 1014.5 |
| 20260507202003 | 76 | 14 | 4.0 | 9.0 | 0.00 | 0.04 | 0.04 | 80 | 1014.5 |
| 20260507201505 | 77 | 352 | 5.0 | 9.0 | 0.00 | 0.04 | 0.04 | 78 | 1014.5 |
| 20260507201003 | 77 | 5 | 4.0 | 8.0 | 0.00 | 0.04 | 0.04 | 79 | 1014.6 |
| 20260507200503 | 76 | 23 | 3.0 | 10.0 | 0.00 | 0.04 | 0.04 | 80 | 1014.5 |
| 20260507200011 | 76 | 318 | 4.0 | 10.0 | 0.00 | 0.04 | 0.04 | 79 | 1014.7 |
| 20260507195504 | 77 | 352 | 6.0 | 10.0 | 0.00 | 0.04 | 0.04 | 80 | 1014.7 |
| 20260507195006 | 77 | 336 | 4.0 | 10.0 | 0.00 | 0.04 | 0.04 | 80 | 1014.7 |
| 20260507194523 | 76 | 325 | 4.0 | 10.0 | 0.00 | 0.04 | 0.04 | 81 | 1014.7 |
| 20260507194004 | 76 | 18 | 4.0 | 9.0 | 0.00 | 0.04 | 0.04 | 81 | 1014.7 |
| 20260507193508 | 76 | 317 | 6.0 | 10.0 | 0.00 | 0.04 | 0.04 | 79 | 1014.7 |
| 20260507193008 | 76 | 324 | 5.0 | 10.0 | 0.00 | 0.04 | 0.04 | 79 | 1014.6 |
| 20260507192504 | 76 | 9 | 4.0 | 10.0 | 0.00 | 0.04 | 0.04 | 80 | 1014.6 |
| 20260507192003 | 76 | 334 | 4.0 | 10.0 | 0.00 | 0.04 | 0.04 | 79 | 1014.7 |
| 20260507191503 | 76 | 5 | 5.0 | 10.0 | 0.00 | 0.04 | 0.04 | 80 | 1014.8 |
| 20260507191003 | 76 | 313 | 6.0 | 10.0 | 0.00 | 0.04 | 0.04 | 80 | 1014.9 |
| 20260507190505 | 76 | 325 | 4.0 | 9.0 | 0.00 | 0.04 | 0.04 | 82 | 1014.9 |
| 20260507190012 | 76 | 360 | 4.0 | 9.0 | 0.00 | 0.04 | 0.04 | 80 | 1014.8 |
| 20260507185503 | 76 | 34 | 5.0 | 9.0 | 0.00 | 0.04 | 0.04 | 81 | 1014.8 |
| 20260507185008 | 76 | 5 | 0.0 | 7.0 | 0.00 | 0.04 | 0.04 | 81 | 1014.9 |
| 20260507184508 | 76 | 51 | 5.0 | 7.0 | 0.00 | 0.04 | 0.04 | 81 | 1015.0 |
| 20260507184004 | 76 | 283 | 2.0 | 10.0 | 0.00 | 0.04 | 0.04 | 82 | 1014.9 |
| 20260507183504 | 75 | 32 | 1.0 | 10.0 | 0.00 | 0.04 | 0.04 | 82 | 1014.9 |
| 20260507183015 | 76 | 13 | 6.0 | 10.0 | 0.00 | 0.04 | 0.04 | 82 | 1014.8 |
| 20260507182504 | 75 | 30 | 3.0 | 9.0 | 0.00 | 0.04 | 0.04 | 84 | 1014.8 |
| 20260507182009 | 75 | 58 | 5.0 | 9.0 | 0.00 | 0.04 | 0.04 | 81 | 1015.0 |
| 20260507181512 | 75 | 329 | 2.0 | 6.0 | 0.00 | 0.04 | 0.04 | 83 | 1015.1 |
| 20260507181010 | 75 | 352 | 3.0 | 6.0 | 0.00 | 0.04 | 0.04 | 83 | 1015.2 |
| 20260507180507 | 75 | 352 | 2.0 | 5.0 | 0.00 | 0.04 | 0.04 | 84 | 1015.3 |
| 20260507180004 | 74 | 30 | 3.0 | 6.0 | 0.00 | 0.04 | 0.04 | 84 | 1015.2 |
| 20260507175504 | 74 | 299 | 2.0 | 6.0 | 0.00 | 0.04 | 0.04 | 85 | 1015.2 |
| 20260507175003 | 73 | 49 | 1.0 | 6.0 | 0.00 | 0.04 | 0.04 | 85 | 1015.2 |
| 20260507174511 | 73 | 5 | 2.0 | 5.0 | 0.00 | 0.04 | 0.04 | 85 | 1015.2 |
| 20260507174004 | 71 | 65 | 1.0 | 4.0 | 0.00 | 0.04 | 0.04 | 86 | 1015.2 |
| 20260507173510 | 71 | 92 | 0.0 | 5.0 | 0.00 | 0.04 | 0.04 | 86 | 1015.3 |
| 20260507173031 | 70 | 49 | 1.0 | 10.0 | 0.00 | 0.04 | 0.04 | 86 | 1015.4 |
| 20260507172505 | 70 | 352 | 3.0 | 10.0 | 0.00 | 0.04 | 0.04 | 86 | 1015.6 |
| 20260507172009 | 70 | 38 | 2.0 | 9.0 | 0.00 | 0.04 | 0.04 | 86 | 1015.7 |
| 20260507171512 | 69 | 23 | 5.0 | 10.0 | 0.00 | 0.04 | 0.04 | 86 | 1015.7 |
| 20260507171008 | 69 | 323 | 5.0 | 10.0 | 0.00 | 0.04 | 0.04 | 86 | 1015.8 |
| 20260507170509 | 69 | 350 | 4.0 | 10.0 | 0.00 | 0.04 | 0.04 | 86 | 1015.8 |
| 20260507170019 | 69 | 350 | 7.0 | 10.0 | 0.00 | 0.04 | 0.04 | 86 | 1015.9 |
| 20260507165506 | 69 | 360 | 6.0 | 10.0 | 0.00 | 0.04 | 0.04 | 86 | 1015.9 |
| 20260507165008 | 69 | 333 | 6.0 | 11.0 | 0.00 | 0.04 | 0.04 | 87 | 1016.0 |
| 20260507164519 | 69 | 351 | 6.0 | 11.0 | 0.00 | 0.04 | 0.04 | 87 | 1016.0 |